Flag for U.S.A. Weather past 2 weeks in Huntsville, Alabama, U.S.A.

Now
74 °F

Overcast.


Feels Like: 74 °F
Forecast: 65 / 83 °F
Wind: 5 mph from Southeast

Location: Huntsville International / Jones Field

Current Time: May 27, 2015 at 9:30:11 AM

Latest Report: May 27, 2015 at 8:53 AM


Visibility: 10 mi

Pressure: 30.19 "Hg

Humidity: 79%

Dew point: 67 °F

Location of HuntsvilleLocation

Historic Weather in Huntsville — Graph

°F

Huntsville temperature yesterday

Maximum temperature yesterday: 81 °F (at 10:53 AM)
Minimum temperature yesterday: 68 °F (at 12:53 AM)
Average temperature yesterday: 75 °F

Past Weeks' High & Low Weather Summary

 TemperatureHumidityPressure
High87 °F (May 19, 3:53 PM)97% (May 18, 8:53 PM)30.33 "Hg (May 18, 8:53 PM)
Low48 °F (May 22, 5:53 AM)21% (May 13, 2:53 PM)29.87 "Hg (May 20, 5:53 PM)
Average72 °F69%30.14 "Hg
* Reported May 12 7:53 AM — May 27 7:53 AM, Huntsville, Weather by CustomWeather, © 2015

Note: Actual official high and low records may vary slightly from our data, if they occured in-between our weather recording intervals... More about our weather records

Advertising

Huntsville weather history for previous 24 hours

 ConditionsComfort  
Time TempWeatherWind HumidityBarometerVisibility
7:53 AM
Wed, May 27
72 °FLow clouds.6 mph84%30.18 "Hg7 mi
6:53 AM71 °FFog.9 mph87%30.16 "Hg6 mi
5:53 AM71 °FFog.8 mph87%30.16 "Hg4 mi
4:53 AM70 °FLow clouds.7 mph90%30.15 "Hg7 mi
3:53 AM70 °FMostly cloudy.6 mph87%30.14 "Hg7 mi
2:53 AM70 °FMostly cloudy.6 mph87%30.13 "Hg10 mi
1:53 AM69 °FLow clouds.7 mph90%30.12 "Hg10 mi
12:53 AM68 °FPassing clouds.6 mph87%30.13 "Hg10 mi
11:53 PM
Tue, May 26
70 °FPassing clouds.6 mph84%30.14 "Hg10 mi
10:53 PM71 °FPassing clouds.6 mph84%30.14 "Hg10 mi
9:53 PM73 °FPassing clouds.8 mph79%30.13 "Hg10 mi
8:53 PM75 °FPassing clouds.8 mph76%30.10 "Hg10 mi
7:53 PM77 °FBroken clouds.9 mph74%30.09 "Hg10 mi
6:53 PM80 °FOvercast.9 mph64%30.06 "Hg10 mi
5:53 PM80 °FMore clouds than sun.9 mph67%30.06 "Hg10 mi
4:53 PM80 °FMore clouds than sun.12 mph67%30.07 "Hg10 mi
3:53 PM80 °FMore clouds than sun.10 mph67%30.05 "Hg10 mi
2:53 PM80 °FMore clouds than sun.12 mph67%30.06 "Hg10 mi
1:53 PM80 °FLight rain. Mostly cloudy.14 mph69%30.06 "Hg10 mi
12:53 PM80 °FLight rain. Mostly cloudy.17 mph67%30.07 "Hg10 mi
11:53 AM80 °FMostly cloudy.13 mph64%30.10 "Hg10 mi
10:53 AM81 °FMore clouds than sun.17 mph65%30.11 "Hg10 mi
10:01 AM79 °FBroken clouds.17 mph72%30.14 "Hg10 mi
Weather by CustomWeather, © 2015

See weather overviewHow to use our weather pages